TJS-12

Last updated on Sun Apr 12 2026 00:02:57 GMT+0000 (Coordinated Universal Time)

1 62374U 24246A 26101.43933676 -.00000230 00000+0 00000+0 0 9995 2 62374 0.8233 293.8343 0002238 53.9437 156.5830 1.00272907 4895
UTC large
Height (km)
Speed (km/s)
/
Latitude / Longitude
Inclination (degrees)
Orbital Period (minutes)
Azimuth
Elevation
Range (km)
Doppler Factor

Next 0 passes for location: London (51.5072 / 0.1276)

Sorry there are no passes over London.
TJS-12